Regional Weather Roundup
Issued by NWS

Home | Current Version | Previous Version | Graphics & Text | Print | Product List | Glossary On
Versions: 1 2 3 4 5 6 7 8 9 10 11 12 13 14 15 16 17 18 19 20 21 22 23 24 25 26 27 28 29 30 31 32 33 34 35 36 37 38 39 40 41 42 43 44 45 46 47 48 49 50
000
ASUS43 KTOP 191359
RWRKS

WEATHER ROUNDUP FOR KANSAS
NATIONAL WEATHER SERVICE GOODLAND KS
800 AM CST FRI DEC 19 2014

NOTE:  "FAIR" INDICATES FEW OR NO CLOUDS BELOW 12,000 FEET WITH NO
SIGNIFICANT WEATHER AND/OR OBSTRUCTIONS TO VISIBILITY.

KSZ001>006-013>018-027>032-041>047-191500-
NORTHWEST KANSAS

CITY           SKY/WX    TMP DP  RH WIND       PRES   REMARKS
GOODLAND       CLEAR     26  22  84 W10       30.11R WCI  16
HAYS           CLOUDY    34  25  69 SE5       30.16R
HILL CITY      FOG       30  29  96 W6        30.14S VSB 1/2
RUSSELL        CLOUDY    31  31 100 S3        30.16R FOG
$$

KSZ061>065-074>080-084>089-191500-
SOUTHWEST KANSAS

CITY           SKY/WX    TMP DP  RH WIND       PRES   REMARKS
DODGE CITY     FOG       33  31  92 SW6       30.15S VSB 3/4
ELKHART          N/A    N/A N/A N/A MISG        N/A
GARDEN CITY    CLOUDY    30  30 100 W6        30.13R
GREAT BEND     CLOUDY    30  27  86 S5        30.19R
LIBERAL        CLOUDY    36  32  87 W3        30.16R
$$

KSZ066>073-081>083-090>101-191500-
SOUTHEAST KANSAS

CITY           SKY/WX    TMP DP  RH WIND       PRES   REMARKS
CHANUTE        CLOUDY    34  32  92 NE3       30.26R FOG
COFFEYVILLE    CLOUDY    36  33  89 N5        30.27R
HUTCHINSON     CLOUDY    31  28  89 SE8       30.23R FOG
MEDICINE LODGE   N/A     33  32  96 S6        30.23R
NEWTON         CLOUDY    28  23  80 SE8       30.25R
PARSONS        CLOUDY    36  34  92 CALM      30.27S
WICHITA INTL   CLOUDY    32  28  85 SE9       30.25R FOG
WICHITA JABRA  CLOUDY    30  28  92 SE7       30.25R
WICHITA MCCONL CLOUDY    30  29  94 SE5       30.26R
WINFIELD       CLOUDY    32  30  92 E3        30.27R
$$

KSZ007>012-019>026-033>040-048>060-102>105-191500-
NORTHEAST KANSAS

CITY           SKY/WX    TMP DP  RH WIND       PRES   REMARKS
CONCORDIA      CLOUDY    29  28  96 SE5       30.19R FOG
EMPORIA        CLOUDY    27  26  96 NE6       30.24R
LAWRENCE       CLOUDY    31  28  89 NE3       30.27R
MANHATTAN      CLOUDY    30  29  96 CALM      30.24R FOG
OLATHE IND     CLOUDY    30  29  96 SE3       30.26R FOG
OLATHE EXE     CLOUDY    31  29  92 CALM      30.24R FOG
SALINA         CLOUDY    30  28  92 SE7       30.23R FOG
TOPEKA BILLARD CLOUDY    30  28  92 CALM      30.27R
TOPEKA FORBES  CLOUDY    30  28  92 CALM      30.26R FOG
$$


USA.gov is the U.S. government's official web portal to all federal, state and local government web resources and services.